sat.trackr.live / text

‹ back to catalog

STARLINK-36632

NORAD 67581 · 2026-016W

PAYLOAD ACTIVE UNKNOWN

§ Identity

Operator
Country
US
Launch date
2026-01-25
Launch site
AFWTR
Launch vehicle
Mass (kg)
RCS (m²)

Purposes: comms

External: N2YO · Heavens-Above · Gunter

§ Orbital elements

Epoch: 2026-05-25T03:30:40.834944Z

Period
93.91 min
Inclination
97.2840°
Eccentricity
0.0001186
Mean motion
15.33451284 rev/d
Perigee alt
464.7 km
Apogee alt
466.3 km
Semi-major
6,843.7 km
B*
6.1968e-4
RAAN
205.5133°
Arg perigee
87.1318°
Mean anomaly
273.0060°
Rev number
1,858

§ Raw data

STARLINK-366321 67581U 26016W   26145.14630596  .00019987  00000+0  61968-3 0  99902 67581  97.2840 205.5133 0001186  87.1318 273.0060 15.33451284 18588

JSON: /api/v1/satellites/67581 · /tle

For live sub-satellite position, see the globe view (requires WebGL).

§ Visibility from observer

Set your observer location to see the next 7 days of passes ≥ 10°. The values pass through the URL so the page stays shareable.

No JS? Fill the form by hand. The geolocation button needs JavaScript.